QPF
0.00 0.01 0.01 0.01 0.00 0.00 0.00 0.00 0.00 0.00 0.00 0.00 0.00 0.00 0.00 0.00 0.00 0.00 0.00 0.00 0.00 0.00 0.00 0.02 0.04 0.05 0.03 0.02 0.04 0.06 0.08 0.10 0.08 0.06 0.05 0.03 0.01 0.02 0.04 0.04 0.06 0.07 0.05 0.02 0.01 0.00 0.00 0.00 0.00
0.01 0.01 0.01 0.01 0.00 0.00 0.00 0.00 0.00 0.00 0.00 0.00 0.00 0.00 0.00 0.00 0.00 0.00 0.00 0.00 0.00 0.00 0.01 0.02 0.04 0.05 0.04 0.03 0.04 0.05 0.07 0.10 0.08 0.08 0.04 0.01 0.01 0.02 0.02 0.03 0.04 0.04 0.02 0.00 0.00 0.00 0.00 0.00 0.01
0.01 0.03 0.01 0.00 0.00 0.00 0.00 0.00 0.00 0.00 0.00 0.00 0.00 0.00 0.00 0.00 0.00 0.00 0.00 0.00 0.00 0.00 0.01 0.03 0.06 0.05 0.03 0.03 0.04 0.04 0.06 0.07 0.07 0.06 0.02 0.01 0.01 0.01 0.01 0.02 0.02 0.01 0.01 0.00 0.00 0.00 0.00 0.00 0.01
0.03 0.04 0.02 0.01 0.00 0.00 0.00 0.00 0.00 0.00 0.00 0.00 0.00 0.00 0.00 0.00 0.00 0.00 0.00 0.00 0.00 0.00 0.00 0.03 0.06 0.05 0.03 0.03 0.03 0.02 0.04 0.05 0.04 0.03 0.02 0.01 0.01 0.01 0.01 0.01 0.01 0.00 0.00 0.00 0.00 0.00 0.00 0.00 0.01
0.03 0.02 0.00 0.00 0.00 0.00 0.00 0.00 0.00 0.00 0.00 0.00 0.00 0.00 0.00 0.00 0.00 0.00 0.00 0.00 0.00 0.00 0.00 0.01 0.05 0.04 0.03 0.02 0.02 0.02 0.03 0.04 0.02 0.01 0.01 0.01 0.01 0.01 0.01 0.01 0.00 0.00 0.00 0.00 0.00 0.00 0.00 0.00 0.01
0.02 0.00 0.00 0.00 0.00 0.00 0.00 0.00 0.00 0.00 0.00 0.00 0.00 0.00 0.00 0.00 0.00 0.00 0.00 0.00 0.00 0.00 0.00 0.01 0.03 0.04 0.03 0.02 0.02 0.03 0.03 0.02 0.01 0.01 0.01 0.01 0.01 0.01 0.01 0.00 0.00 0.00 0.00 0.00 0.00 0.00 0.00 0.01 0.04
0.02 0.00 0.00 0.00 0.00 0.00 0.00 0.00 0.00 0.00 0.00 0.00 0.00 0.00 0.00 0.00 0.00 0.00 0.00 0.00 0.00 0.00 0.00 0.00 0.01 0.03 0.02 0.02 0.02 0.02 0.02 0.02 0.01 0.01 0.01 0.00 0.01 0.01 0.00 0.00 0.00 0.00 0.00 0.00 0.00 0.00 0.00 0.02 0.06
0.03 0.01 0.00 0.00 0.00 0.00 0.00 0.00 0.00 0.00 0.00 0.00 0.00 0.00 0.00 0.00 0.00 0.00 0.00 0.00 0.00 0.00 0.00 0.00 0.00 0.02 0.02 0.01 0.02 0.02 0.02 0.01 0.01 0.01 0.01 0.00 0.00 0.00 0.00 0.00 0.00 0.00 0.00 0.00 0.00 0.00 0.01 0.03 0.07
0.05 0.01 0.00 0.00 0.00 0.00 0.00 0.00 0.00 0.00 0.00 0.00 0.00 0.00 0.00 0.00 0.00 0.00 0.00 0.00 0.00 0.00 0.00 0.00 0.00 0.00 0.01 0.01 0.01 0.02 0.02 0.02 0.01 0.01 0.01 0.00 0.00 0.00 0.00 0.00 0.00 0.00 0.00 0.00 0.00 0.00 0.01 0.02 0.03
0.07 0.01 0.00 0.00 0.00 0.00 0.00 0.00 0.00 0.00 0.00 0.00 0.00 0.00 0.00 0.00 0.00 0.00 0.00 0.00 0.00 0.00 0.00 0.00 0.00 0.00 0.00 0.00 0.00 0.00 0.01 0.01 0.02 0.01 0.01 0.00 0.00 0.00 0.00 0.00 0.01 0.00 0.00 0.00 0.00 0.00 0.00 0.00 0.00
0.04 0.01 0.00 0.00 0.00 0.00 0.00 0.00 0.00 0.00 0.00 0.00 0.00 0.00 0.00 0.00 0.00 0.00 0.00 0.00 0.00 0.00 0.00 0.00 0.00 0.00 0.00 0.00 0.00 0.00 0.00 0.01 0.01 0.01 0.01 0.00 0.00 0.00 0.00 0.00 0.01 0.00 0.00 0.00 0.00 0.00 0.00 0.00 0.00
0.01 0.00 0.00 0.00 0.00 0.00 0.00 0.00 0.00 0.00 0.00 0.00 0.00 0.00 0.00 0.00 0.00 0.00 0.00 0.00 0.00 0.00 0.00 0.00 0.00 0.00 0.00 0.00 0.00 0.00 0.00 0.00 0.01 0.00 0.00 0.00 0.00 0.00 0.00 0.00 0.01 0.01 0.00 0.00 0.00 0.00 0.00 0.00 0.00
0.01 0.01 0.01 0.00 0.00 0.00 0.00 0.00 0.00 0.00 0.00 0.00 0.00 0.00 0.00 0.00 0.00 0.00 0.00 0.00 0.00 0.00 0.01 0.01 0.00 0.00 0.00 0.00 0.00 0.00 0.00 0.00 0.00 0.00 0.00 0.00 0.00 0.00 0.00 0.00 0.01 0.01 0.01 0.00 0.00 0.00 0.01 0.00 0.00
0.02 0.02 0.02 0.01 0.00 0.00 0.00 0.00 0.00 0.00 0.00 0.00 0.00 0.00 0.00 0.00 0.00 0.00 0.00 0.00 0.00 0.01 0.01 0.03 0.03 0.02 0.02 0.02 0.01 0.00 0.00 0.00 0.00 0.00 0.00 0.00 0.00 0.01 0.01 0.01 0.01 0.02 0.01 0.01 0.01 0.01 0.01 0.00 0.00
0.04 0.04 0.02 0.01 0.00 0.00 0.00 0.00 0.00 0.00 0.00 0.00 0.00 0.00 0.00 0.00 0.00 0.00 0.00 0.00 0.00 0.01 0.02 0.04 0.05 0.05 0.05 0.04 0.03 0.02 0.01 0.01 0.00 0.00 0.00 0.01 0.01 0.02 0.02 0.02 0.03 0.05 0.04 0.02 0.02 0.02 0.01 0.00 0.00
0.09 0.06 0.02 0.01 0.00 0.00 0.00 0.00 0.00 0.00 0.00 0.00 0.00 0.00 0.00 0.00 0.00 0.00 0.00 0.00 0.00 0.01 0.04 0.08 0.04 0.05 0.07 0.06 0.05 0.04 0.04 0.04 0.03 0.03 0.04 0.04 0.05 0.07 0.07 0.06 0.04 0.06 0.05 0.04 0.04 0.02 0.00 0.00 0.00
0.05 0.02 0.01 0.00 0.00 0.00 0.00 0.00 0.00 0.00 0.00 0.00 0.00 0.00 0.00 0.00 0.00 0.00 0.00 0.00 0.01 0.02 0.06 0.08 0.06 0.05 0.06 0.09 0.09 0.07 0.06 0.06 0.06 0.06 0.09 0.11 0.11 0.11 0.10 0.08 0.06 0.06 0.03 0.05 0.05 0.02 0.01 0.00 0.00
0.05 0.03 0.02 0.01 0.00 0.00 0.00 0.00 0.00 0.00 0.00 0.00 0.00 0.00 0.00 0.00 0.00 0.00 0.00 0.00 0.01 0.02 0.05 0.07 0.09 0.06 0.09 0.14 0.14 0.11 0.08 0.07 0.07 0.08 0.13 0.18 0.16 0.13 0.11 0.10 0.07 0.04 0.02 0.04 0.05 0.03 0.01 0.00 0.00
0.08 0.06 0.04 0.02 0.01 0.00 0.00 0.00 0.00 0.00 0.00 0.00 0.00 0.00 0.00 0.00 0.00 0.00 0.00 0.00 0.00 0.01 0.04 0.06 0.08 0.10 0.13 0.14 0.16 0.14 0.11 0.10 0.11 0.13 0.17 0.21 0.21 0.16 0.13 0.10 0.07 0.04 0.02 0.05 0.06 0.04 0.02 0.01 0.00
0.09 0.08 0.05 0.02 0.00 0.00 0.00 0.00 0.00 0.00 0.00 0.00 0.00 0.00 0.00 0.00 0.00 0.00 0.00 0.00 0.00 0.00 0.02 0.04 0.06 0.10 0.13 0.18 0.21 0.21 0.19 0.18 0.15 0.14 0.14 0.19 0.22 0.20 0.19 0.14 0.08 0.05 0.04 0.07 0.07 0.04 0.03 0.02 0.00
0.05 0.05 0.03 0.02 0.00 0.00 0.00 0.00 0.00 0.00 0.00 0.00 0.00 0.00 0.00 0.00 0.00 0.00 0.00 0.00 0.00 0.00 0.01 0.03 0.05 0.07 0.12 0.19 0.23 0.24 0.22 0.19 0.14 0.10 0.11 0.16 0.20 0.21 0.22 0.21 0.13 0.08 0.06 0.05 0.05 0.04 0.02 0.02 0.01
0.02 0.01 0.01 0.00 0.00 0.00 0.00 0.00 0.00 0.00 0.00 0.00 0.00 0.00 0.00 0.00 0.00 0.00 0.00 0.00 0.00 0.00 0.00 0.01 0.03 0.05 0.07 0.10 0.13 0.15 0.15 0.14 0.12 0.13 0.15 0.18 0.19 0.22 0.27 0.27 0.20 0.12 0.09 0.09 0.09 0.07 0.04 0.03 0.02
0.01 0.00 0.00 0.00 0.00 0.00 0.00 0.00 0.00 0.00 0.00 0.00 0.00 0.00 0.00 0.00 0.00 0.00 0.00 0.00 0.00 0.00 0.00 0.00 0.01 0.02 0.03 0.04 0.05 0.07 0.09 0.11 0.11 0.12 0.15 0.19 0.22 0.25 0.29 0.31 0.25 0.19 0.16 0.14 0.15 0.11 0.08 0.04 0.02
0.00 0.00 0.00 0.00 0.00 0.00 0.00 0.00 0.00 0.00 0.00 0.00 0.00 0.00 0.00 0.00 0.00 0.00 0.00 0.00 0.00 0.00 0.00 0.00 0.00 0.00 0.01 0.01 0.02 0.03 0.04 0.07 0.07 0.07 0.10 0.14 0.19 0.24 0.27 0.27 0.25 0.21 0.20 0.18 0.18 0.17 0.13 0.08 0.05
0.00 0.00 0.00 0.00 0.00 0.00 0.00 0.00 0.00 0.00 0.00 0.00 0.00 0.00 0.00 0.00 0.00 0.00 0.00 0.00 0.00 0.00 0.00 0.00 0.00 0.00 0.00 0.01 0.01 0.02 0.03 0.03 0.04 0.04 0.06 0.10 0.13 0.17 0.21 0.23 0.23 0.21 0.18 0.18 0.20 0.18 0.15 0.12 0.09
0.00 0.00 0.00 0.00 0.00 0.00 0.00 0.00 0.00 0.00 0.00 0.00 0.00 0.00 0.00 0.00 0.00 0.00 0.00 0.00 0.00 0.00 0.00 0.00 0.00 0.00 0.00 0.00 0.00 0.01 0.02 0.02 0.03 0.03 0.05 0.06 0.08 0.12 0.15 0.17 0.20 0.20 0.19 0.19 0.17 0.15 0.14 0.13 0.11
0.00 0.00 0.00 0.00 0.00 0.00 0.00 0.00 0.00 0.00 0.00 0.00 0.00 0.00 0.00 0.00 0.00 0.00 0.00 0.00 0.00 0.00 0.00 0.00 0.00 0.00 0.00 0.00 0.00 0.01 0.02 0.02 0.02 0.02 0.03 0.04 0.06 0.10 0.13 0.15 0.16 0.19 0.22 0.21 0.20 0.15 0.13 0.12 0.11
0.00 0.00 0.00 0.00 0.00 0.00 0.00 0.00 0.00 0.00 0.00 0.00 0.00 0.00 0.00 0.00 0.00 0.00 0.00 0.00 0.00 0.00 0.00 0.00 0.00 0.00 0.00 0.00 0.00 0.00 0.00 0.01 0.01 0.01 0.01 0.02 0.03 0.05 0.08 0.13 0.15 0.17 0.21 0.22 0.21 0.15 0.15 0.12 0.10
0.01 0.01 0.01 0.01 0.00 0.00 0.00 0.00 0.00 0.00 0.00 0.00 0.00 0.00 0.00 0.00 0.00 0.00 0.00 0.00 0.00 0.00 0.00 0.00 0.00 0.00 0.00 0.00 0.00 0.00 0.00 0.01 0.01 0.01 0.01 0.01 0.01 0.02 0.04 0.08 0.11 0.14 0.15 0.18 0.18 0.15 0.14 0.11 0.09
0.03 0.05 0.06 0.05 0.03 0.01 0.00 0.00 0.00 0.00 0.00 0.00 0.00 0.00 0.00 0.00 0.00 0.00 0.00 0.00 0.00 0.00 0.00 0.00 0.00 0.00 0.00 0.00 0.00 0.00 0.00 0.01 0.01 0.01 0.01 0.01 0.01 0.01 0.03 0.04 0.06 0.09 0.12 0.12 0.13 0.13 0.13 0.11 0.09
MSLP
1006.89 1007.94 1009.20 1010.51 1011.68 1012.58 1013.12 1013.29 1013.16 1012.85 1012.47 1012.15 1011.96 1011.89 1011.92 1011.98 1011.99 1011.88 1011.65 1011.31 1010.91 1010.55 1010.28 1010.17 1010.22 1010.43 1010.73 1011.07 1011.38 1011.64 1011.81 1011.92 1011.99 1012.06 1012.16 1012.31 1012.52 1012.77 1013.03 1013.26 1013.44 1013.55 1013.58 1013.56 1013.49 1013.41 1013.33 1013.28 1013.26
1007.47 1008.67 1010.01 1011.30 1012.36 1013.07 1013.39 1013.32 1012.97 1012.45 1011.93 1011.52 1011.27 1011.20 1011.25 1011.35 1011.41 1011.38 1011.22 1010.95 1010.64 1010.35 1010.15 1010.09 1010.19 1010.43 1010.76 1011.12 1011.46 1011.73 1011.94 1012.07 1012.16 1012.25 1012.37 1012.52 1012.72 1012.95 1013.18 1013.39 1013.55 1013.65 1013.69 1013.67 1013.61 1013.54 1013.48 1013.44 1013.42
1008.21 1009.51 1010.84 1012.03 1012.92 1013.41 1013.49 1013.20 1012.65 1012.00 1011.39 1010.93 1010.68 1010.62 1010.69 1010.83 1010.93 1010.93 1010.82 1010.62 1010.37 1010.15 1010.01 1010.01 1010.16 1010.44 1010.79 1011.17 1011.52 1011.82 1012.04 1012.20 1012.31 1012.42 1012.54 1012.70 1012.88 1013.08 1013.28 1013.46 1013.60 1013.70 1013.74 1013.74 1013.72 1013.68 1013.65 1013.64 1013.65
1009.05 1010.37 1011.63 1012.66 1013.34 1013.59 1013.44 1012.96 1012.28 1011.55 1010.92 1010.47 1010.25 1010.22 1010.32 1010.47 1010.58 1010.60 1010.51 1010.34 1010.14 1009.98 1009.91 1009.96 1010.16 1010.46 1010.83 1011.21 1011.57 1011.87 1012.10 1012.28 1012.42 1012.55 1012.68 1012.83 1013.00 1013.18 1013.35 1013.51 1013.64 1013.73 1013.79 1013.83 1013.86 1013.87 1013.89 1013.92 1013.97
1009.88 1011.16 1012.29 1013.13 1013.57 1013.60 1013.25 1012.63 1011.88 1011.15 1010.56 1010.17 1010.01 1010.02 1010.15 1010.30 1010.40 1010.40 1010.32 1010.17 1010.00 1009.89 1009.88 1009.98 1010.21 1010.53 1010.89 1011.26 1011.60 1011.89 1012.13 1012.32 1012.48 1012.63 1012.79 1012.95 1013.12 1013.29 1013.44 1013.58 1013.70 1013.81 1013.90 1013.98 1014.06 1014.14 1014.21 1014.29 1014.36
1010.62 1011.80 1012.75 1013.37 1013.59 1013.42 1012.93 1012.24 1011.49 1010.82 1010.32 1010.03 1009.95 1010.02 1010.16 1010.30 1010.37 1010.36 1010.26 1010.12 1009.99 1009.92 1009.95 1010.10 1010.34 1010.66 1011.00 1011.33 1011.64 1011.91 1012.13 1012.33 1012.52 1012.71 1012.90 1013.09 1013.28 1013.45 1013.60 1013.73 1013.84 1013.96 1014.07 1014.20 1014.33 1014.46 1014.59 1014.71 1014.82
1011.17 1012.19 1012.94 1013.34 1013.36 1013.03 1012.46 1011.77 1011.09 1010.53 1010.16 1010.00 1010.01 1010.14 1010.30 1010.42 1010.47 1010.42 1010.32 1010.19 1010.09 1010.07 1010.14 1010.32 1010.57 1010.86 1011.17 1011.45 1011.71 1011.94 1012.15 1012.36 1012.58 1012.81 1013.05 1013.29 1013.50 1013.69 1013.84 1013.96 1014.07 1014.19 1014.31 1014.46 1014.63 1014.81 1014.99 1015.15 1015.27
1011.48 1012.32 1012.86 1013.05 1012.90 1012.47 1011.88 1011.24 1010.66 1010.25 1010.04 1010.01 1010.12 1010.30 1010.47 1010.58 1010.60 1010.54 1010.44 1010.33 1010.28 1010.30 1010.42 1010.62 1010.87 1011.14 1011.39 1011.62 1011.82 1012.01 1012.20 1012.42 1012.67 1012.95 1013.25 1013.54 1013.79 1014.00 1014.16 1014.28 1014.37 1014.47 1014.60 1014.75 1014.94 1015.15 1015.35 1015.53 1015.67
1011.56 1012.19 1012.53 1012.54 1012.26 1011.78 1011.20 1010.64 1010.21 1009.95 1009.89 1009.99 1010.18 1010.41 1010.59 1010.69 1010.70 1010.63 1010.55 1010.48 1010.48 1010.56 1010.73 1010.95 1011.20 1011.44 1011.65 1011.82 1011.96 1012.11 1012.28 1012.51 1012.80 1013.13 1013.49 1013.83 1014.13 1014.37 1014.53 1014.64 1014.71 1014.78 1014.88 1015.03 1015.21 1015.43 1015.65 1015.85 1016.00
1011.46 1011.90 1012.04 1011.90 1011.54 1011.03 1010.50 1010.04 1009.73 1009.62 1009.68 1009.88 1010.14 1010.39 1010.57 1010.67 1010.67 1010.62 1010.57 1010.55 1010.61 1010.76 1010.97 1011.23 1011.49 1011.71 1011.88 1012.00 1012.10 1012.21 1012.38 1012.62 1012.94 1013.32 1013.73 1014.13 1014.47 1014.73 1014.90 1014.99 1015.04 1015.08 1015.15 1015.27 1015.44 1015.65 1015.88 1016.09 1016.26
1011.30 1011.55 1011.53 1011.27 1010.84 1010.33 1009.85 1009.48 1009.28 1009.27 1009.42 1009.68 1009.96 1010.22 1010.39 1010.48 1010.48 1010.45 1010.44 1010.48 1010.60 1010.81 1011.08 1011.37 1011.64 1011.86 1012.01 1012.11 1012.19 1012.29 1012.45 1012.71 1013.05 1013.47 1013.92 1014.36 1014.74 1015.03 1015.21 1015.30 1015.33 1015.35 1015.39 1015.47 1015.62 1015.83 1016.06 1016.29 1016.49
1011.18 1011.27 1011.12 1010.77 1010.30 1009.79 1009.35 1009.04 1008.91 1008.95 1009.14 1009.40 1009.68 1009.91 1010.06 1010.13 1010.13 1010.12 1010.14 1010.23 1010.41 1010.67 1010.99 1011.32 1011.62 1011.85 1012.01 1012.11 1012.20 1012.30 1012.47 1012.74 1013.10 1013.54 1014.02 1014.49 1014.90 1015.21 1015.42 1015.52 1015.56 1015.57 1015.59 1015.67 1015.81 1016.01 1016.25 1016.51 1016.73
1011.21 1011.19 1010.94 1010.52 1010.01 1009.51 1009.08 1008.80 1008.68 1008.73 1008.89 1009.12 1009.34 1009.52 1009.63 1009.67 1009.66 1009.66 1009.70 1009.82 1010.03 1010.33 1010.68 1011.04 1011.37 1011.64 1011.84 1011.98 1012.09 1012.22 1012.42 1012.69 1013.06 1013.51 1014.00 1014.48 1014.91 1015.25 1015.49 1015.63 1015.70 1015.74 1015.78 1015.87 1016.01 1016.23 1016.49 1016.77 1017.03
1011.48 1011.36 1011.04 1010.58 1010.05 1009.54 1009.10 1008.81 1008.66 1008.65 1008.75 1008.90 1009.04 1009.15 1009.20 1009.20 1009.17 1009.15 1009.19 1009.31 1009.52 1009.82 1010.19 1010.57 1010.93 1011.25 1011.51 1011.71 1011.88 1012.06 1012.29 1012.58 1012.94 1013.38 1013.85 1014.33 1014.77 1015.14 1015.43 1015.63 1015.76 1015.86 1015.95 1016.08 1016.26 1016.50 1016.79 1017.10 1017.41
1011.96 1011.79 1011.43 1010.94 1010.40 1009.87 1009.42 1009.07 1008.86 1008.76 1008.76 1008.80 1008.85 1008.87 1008.86 1008.81 1008.75 1008.70 1008.71 1008.79 1008.98 1009.25 1009.59 1009.98 1010.37 1010.74 1011.07 1011.36 1011.62 1011.86 1012.12 1012.42 1012.77 1013.17 1013.62 1014.07 1014.51 1014.91 1015.25 1015.53 1015.75 1015.93 1016.10 1016.29 1016.52 1016.80 1017.13 1017.47 1017.82
1012.59 1012.40 1012.03 1011.54 1011.00 1010.46 1009.97 1009.56 1009.26 1009.05 1008.93 1008.85 1008.80 1008.74 1008.67 1008.58 1008.48 1008.39 1008.35 1008.38 1008.50 1008.71 1009.01 1009.38 1009.79 1010.21 1010.62 1011.00 1011.35 1011.66 1011.97 1012.27 1012.60 1012.95 1013.34 1013.76 1014.18 1014.60 1014.99 1015.35 1015.66 1015.95 1016.21 1016.48 1016.77 1017.09 1017.45 1017.82 1018.20
1013.26 1013.07 1012.72 1012.26 1011.74 1011.20 1010.68 1010.21 1009.81 1009.48 1009.23 1009.04 1008.89 1008.77 1008.65 1008.53 1008.40 1008.28 1008.19 1008.15 1008.18 1008.31 1008.54 1008.86 1009.27 1009.73 1010.21 1010.69 1011.13 1011.52 1011.87 1012.18 1012.47 1012.77 1013.09 1013.44 1013.83 1014.25 1014.68 1015.11 1015.51 1015.89 1016.25 1016.59 1016.94 1017.30 1017.68 1018.08 1018.49
1013.83 1013.68 1013.39 1012.99 1012.52 1012.00 1011.46 1010.92 1010.42 1009.98 1009.61 1009.31 1009.09 1008.91 1008.77 1008.64 1008.50 1008.36 1008.23 1008.12 1008.07 1008.10 1008.24 1008.51 1008.90 1009.38 1009.92 1010.47 1010.99 1011.45 1011.84 1012.15 1012.41 1012.64 1012.89 1013.17 1013.51 1013.91 1014.36 1014.83 1015.31 1015.76 1016.19 1016.59 1016.98 1017.36 1017.76 1018.18 1018.61
1014.18 1014.10 1013.91 1013.61 1013.22 1012.74 1012.20 1011.62 1011.03 1010.48 1009.99 1009.60 1009.30 1009.09 1008.94 1008.83 1008.72 1008.59 1008.44 1008.28 1008.15 1008.10 1008.15 1008.35 1008.70 1009.18 1009.75 1010.36 1010.94 1011.46 1011.88 1012.19 1012.41 1012.58 1012.75 1012.96 1013.24 1013.61 1014.05 1014.54 1015.06 1015.56 1016.03 1016.47 1016.87 1017.26 1017.67 1018.09 1018.54
1014.25 1014.28 1014.22 1014.06 1013.78 1013.38 1012.85 1012.23 1011.56 1010.90 1010.30 1009.81 1009.45 1009.22 1009.09 1009.01 1008.95 1008.87 1008.73 1008.56 1008.39 1008.27 1008.24 1008.37 1008.66 1009.12 1009.69 1010.32 1010.95 1011.51 1011.95 1012.26 1012.45 1012.57 1012.67 1012.81 1013.03 1013.35 1013.76 1014.25 1014.77 1015.29 1015.78 1016.22 1016.62 1017.01 1017.40 1017.82 1018.28
1014.02 1014.19 1014.31 1014.32 1014.19 1013.88 1013.39 1012.74 1011.99 1011.21 1010.49 1009.90 1009.47 1009.22 1009.11 1009.09 1009.11 1009.10 1009.02 1008.88 1008.70 1008.54 1008.45 1008.51 1008.74 1009.15 1009.69 1010.32 1010.96 1011.53 1011.99 1012.30 1012.48 1012.56 1012.62 1012.70 1012.87 1013.14 1013.52 1013.98 1014.49 1014.99 1015.47 1015.89 1016.27 1016.63 1017.00 1017.41 1017.88
1013.58 1013.92 1014.24 1014.45 1014.48 1014.28 1013.83 1013.15 1012.31 1011.41 1010.56 1009.85 1009.34 1009.05 1008.96 1009.01 1009.11 1009.20 1009.21 1009.14 1008.99 1008.82 1008.70 1008.70 1008.87 1009.21 1009.71 1010.30 1010.92 1011.49 1011.95 1012.26 1012.44 1012.51 1012.55 1012.60 1012.73 1012.96 1013.31 1013.74 1014.22 1014.70 1015.15 1015.54 1015.89 1016.21 1016.55 1016.94 1017.40
1013.04 1013.57 1014.09 1014.50 1014.70 1014.61 1014.19 1013.49 1012.56 1011.54 1010.54 1009.70 1009.08 1008.74 1008.65 1008.75 1008.94 1009.13 1009.26 1009.28 1009.20 1009.06 1008.93 1008.89 1008.99 1009.26 1009.69 1010.23 1010.81 1011.36 1011.81 1012.13 1012.31 1012.39 1012.43 1012.48 1012.59 1012.81 1013.12 1013.53 1013.98 1014.43 1014.85 1015.21 1015.53 1015.82 1016.12 1016.48 1016.92
1012.54 1013.24 1013.96 1014.56 1014.90 1014.91 1014.53 1013.80 1012.78 1011.62 1010.48 1009.49 1008.76 1008.34 1008.23 1008.35 1008.62 1008.92 1009.16 1009.28 1009.29 1009.20 1009.09 1009.02 1009.08 1009.28 1009.63 1010.10 1010.63 1011.14 1011.58 1011.90 1012.10 1012.20 1012.25 1012.32 1012.44 1012.65 1012.96 1013.35 1013.78 1014.21 1014.60 1014.94 1015.23 1015.49 1015.76 1016.08 1016.48
1012.19 1013.04 1013.92 1014.66 1015.13 1015.21 1014.86 1014.08 1012.98 1011.70 1010.42 1009.29 1008.44 1007.93 1007.78 1007.90 1008.22 1008.59 1008.93 1009.16 1009.25 1009.23 1009.15 1009.09 1009.11 1009.25 1009.53 1009.93 1010.40 1010.87 1011.28 1011.60 1011.82 1011.95 1012.04 1012.13 1012.27 1012.49 1012.80 1013.18 1013.60 1014.02 1014.40 1014.73 1015.00 1015.24 1015.48 1015.77 1016.12
1012.07 1013.01 1013.99 1014.83 1015.37 1015.49 1015.14 1014.33 1013.17 1011.79 1010.38 1009.14 1008.17 1007.58 1007.36 1007.47 1007.79 1008.22 1008.63 1008.94 1009.11 1009.16 1009.12 1009.07 1009.08 1009.18 1009.41 1009.75 1010.16 1010.59 1010.98 1011.30 1011.53 1011.68 1011.80 1011.92 1012.08 1012.32 1012.63 1013.01 1013.43 1013.85 1014.23 1014.55 1014.83 1015.06 1015.27 1015.52 1015.82
1012.16 1013.13 1014.13 1015.00 1015.56 1015.69 1015.33 1014.50 1013.28 1011.84 1010.37 1009.04 1007.99 1007.32 1007.04 1007.10 1007.41 1007.85 1008.29 1008.65 1008.89 1008.99 1009.00 1008.98 1008.99 1009.08 1009.28 1009.58 1009.95 1010.34 1010.71 1011.02 1011.26 1011.44 1011.57 1011.71 1011.88 1012.12 1012.44 1012.82 1013.23 1013.65 1014.04 1014.38 1014.66 1014.89 1015.09 1015.31 1015.55
1012.41 1013.33 1014.29 1015.11 1015.62 1015.72 1015.33 1014.49 1013.26 1011.81 1010.32 1008.96 1007.87 1007.15 1006.81 1006.82 1007.09 1007.50 1007.94 1008.32 1008.59 1008.74 1008.79 1008.81 1008.85 1008.95 1009.14 1009.43 1009.78 1010.15 1010.51 1010.82 1011.06 1011.24 1011.38 1011.52 1011.69 1011.93 1012.23 1012.60 1013.00 1013.42 1013.82 1014.17 1014.46 1014.70 1014.90 1015.09 1015.29
1012.72 1013.53 1014.36 1015.06 1015.48 1015.50 1015.08 1014.23 1013.03 1011.62 1010.16 1008.83 1007.76 1007.02 1006.65 1006.60 1006.82 1007.17 1007.58 1007.94 1008.22 1008.40 1008.49 1008.56 1008.64 1008.77 1008.99 1009.29 1009.64 1010.01 1010.37 1010.67 1010.91 1011.09 1011.23 1011.36 1011.52 1011.73 1012.00 1012.35 1012.74 1013.14 1013.54 1013.90 1014.20 1014.45 1014.65 1014.83 1014.99
1012.98 1013.63 1014.28 1014.81 1015.08 1015.00 1014.53 1013.68 1012.53 1011.20 1009.84 1008.59 1007.58 1006.87 1006.49 1006.41 1006.56 1006.86 1007.20 1007.53 1007.79 1007.98 1008.11 1008.22 1008.35 1008.53 1008.80 1009.13 1009.50 1009.89 1010.26 1010.57 1010.81 1010.98 1011.11 1011.22 1011.35 1011.53 1011.78 1012.09 1012.44 1012.83 1013.22 1013.58 1013.89 1014.15 1014.35 1014.51 1014.65
Thickness
5829 5829 5826 5814 5788 5764 5765 5776 5783 5786 5789 5797 5799 5794 5787 5781 5776 5772 5793 5801 5801 5798 5796 5793 5789 5786 5782 5778 5775 5771 5768 5766 5763 5761 5759 5757 5755 5753 5751 5749 5747 5745 5745 5745 5747 5749 5752 5756 5759
5829 5827 5817 5798 5768 5750 5760 5779 5783 5789 5795 5799 5799 5794 5787 5784 5790 5790 5794 5799 5800 5798 5795 5792 5788 5784 5781 5777 5774 5770 5767 5764 5762 5760 5757 5755 5753 5751 5750 5748 5746 5745 5744 5744 5745 5747 5749 5753 5755
5828 5824 5803 5782 5765 5756 5769 5786 5790 5796 5800 5799 5792 5791 5787 5785 5790 5792 5798 5800 5798 5796 5793 5790 5787 5783 5780 5776 5773 5769 5766 5763 5760 5757 5755 5753 5751 5749 5747 5746 5745 5744 5743 5743 5744 5745 5747 5749 5751
5820 5808 5794 5774 5769 5775 5781 5791 5796 5793 5797 5798 5790 5782 5788 5796 5796 5798 5800 5799 5796 5794 5791 5789 5785 5782 5778 5775 5771 5767 5764 5760 5757 5755 5752 5750 5748 5747 5744 5743 5742 5742 5742 5742 5742 5742 5743 5746 5748
5813 5794 5777 5766 5773 5783 5791 5797 5798 5791 5791 5792 5787 5778 5781 5795 5801 5800 5799 5797 5794 5792 5790 5787 5784 5780 5777 5773 5769 5765 5761 5758 5754 5751 5749 5747 5745 5744 5742 5740 5739 5739 5739 5739 5739 5739 5741 5743 5745
5796 5785 5764 5759 5772 5783 5794 5801 5800 5794 5791 5790 5786 5777 5780 5793 5795 5796 5797 5795 5794 5792 5789 5786 5782 5778 5775 5771 5767 5763 5759 5755 5751 5748 5746 5744 5742 5740 5739 5737 5735 5735 5735 5736 5736 5737 5738 5741 5742
5789 5776 5767 5769 5769 5780 5797 5805 5799 5794 5789 5789 5790 5775 5778 5787 5793 5795 5794 5793 5792 5791 5788 5784 5780 5776 5772 5769 5765 5761 5756 5752 5748 5745 5742 5740 5738 5737 5735 5733 5732 5731 5731 5732 5733 5734 5736 5737 5738
5795 5779 5770 5768 5771 5780 5799 5806 5806 5799 5794 5800 5794 5776 5774 5787 5793 5792 5790 5789 5788 5787 5785 5781 5778 5774 5770 5766 5762 5758 5754 5750 5745 5741 5738 5736 5734 5733 5731 5729 5728 5727 5728 5728 5729 5730 5731 5732 5733
5798 5772 5764 5771 5774 5784 5800 5801 5806 5810 5801 5798 5797 5792 5793 5796 5792 5786 5783 5782 5782 5782 5781 5778 5775 5771 5767 5763 5759 5755 5751 5747 5742 5738 5735 5732 5730 5729 5727 5725 5725 5724 5724 5724 5725 5726 5727 5727 5728
5788 5768 5775 5788 5790 5793 5799 5800 5802 5800 5793 5790 5791 5795 5798 5793 5787 5782 5779 5778 5777 5777 5776 5774 5771 5767 5764 5760 5756 5752 5748 5743 5739 5735 5731 5728 5726 5725 5723 5722 5721 5721 5721 5720 5721 5721 5722 5723 5723
5788 5778 5789 5796 5800 5800 5799 5800 5804 5794 5786 5790 5790 5791 5792 5788 5785 5782 5781 5780 5778 5776 5773 5771 5767 5764 5760 5756 5752 5748 5745 5740 5736 5732 5728 5725 5722 5721 5720 5719 5718 5718 5718 5717 5717 5717 5718 5718 5718
5783 5788 5793 5797 5803 5800 5799 5800 5798 5795 5797 5806 5804 5799 5794 5788 5786 5786 5784 5782 5778 5774 5771 5769 5765 5761 5757 5753 5749 5745 5741 5738 5734 5730 5726 5722 5719 5717 5716 5716 5715 5715 5715 5715 5714 5714 5714 5713 5713
5778 5784 5793 5798 5799 5800 5799 5797 5796 5798 5808 5811 5805 5797 5793 5791 5790 5791 5789 5784 5779 5774 5770 5768 5764 5760 5756 5751 5747 5742 5738 5735 5732 5728 5724 5720 5717 5715 5714 5713 5712 5712 5712 5712 5712 5711 5710 5709 5708
5778 5782 5786 5792 5795 5797 5792 5794 5793 5798 5808 5804 5799 5794 5793 5792 5792 5788 5786 5783 5780 5776 5771 5768 5764 5760 5756 5751 5747 5742 5737 5733 5729 5726 5722 5719 5716 5714 5712 5711 5710 5710 5710 5710 5710 5709 5707 5705 5704
5778 5773 5777 5783 5788 5792 5789 5779 5786 5799 5802 5796 5793 5792 5791 5791 5791 5789 5790 5786 5782 5776 5771 5767 5764 5760 5755 5750 5746 5741 5736 5732 5728 5725 5722 5718 5715 5712 5711 5710 5708 5707 5707 5707 5706 5705 5704 5702 5700
5764 5757 5752 5769 5779 5784 5775 5760 5783 5795 5793 5788 5787 5787 5787 5788 5790 5791 5790 5786 5782 5776 5771 5767 5765 5759 5754 5750 5746 5741 5735 5731 5728 5725 5721 5717 5714 5711 5709 5708 5707 5706 5705 5705 5704 5702 5700 5698 5696
5740 5733 5740 5755 5773 5774 5766 5759 5779 5789 5786 5782 5782 5781 5782 5783 5786 5788 5788 5786 5783 5779 5773 5768 5764 5759 5754 5749 5744 5739 5734 5729 5726 5723 5720 5716 5713 5711 5708 5707 5706 5705 5703 5703 5702 5700 5698 5694 5692
5719 5723 5731 5739 5757 5760 5755 5757 5771 5780 5780 5778 5778 5776 5775 5777 5781 5783 5784 5785 5784 5780 5775 5770 5764 5758 5753 5746 5740 5735 5731 5728 5725 5722 5719 5716 5712 5710 5708 5706 5705 5703 5702 5701 5700 5697 5697 5693 5692
5723 5721 5721 5733 5750 5748 5745 5750 5762 5772 5773 5773 5771 5770 5768 5771 5775 5777 5778 5779 5777 5774 5771 5766 5760 5755 5749 5742 5736 5731 5727 5725 5722 5720 5718 5715 5712 5709 5707 5706 5704 5703 5701 5701 5699 5696 5694 5690 5690
5719 5713 5714 5728 5744 5742 5739 5744 5758 5765 5769 5771 5769 5765 5763 5764 5767 5768 5769 5770 5768 5766 5764 5761 5756 5751 5747 5741 5736 5731 5727 5723 5721 5719 5717 5714 5711 5708 5706 5704 5702 5702 5701 5698 5697 5696 5692 5690 5690
5715 5711 5712 5716 5729 5735 5731 5732 5747 5760 5766 5768 5767 5764 5760 5759 5759 5760 5761 5760 5759 5757 5756 5754 5751 5747 5742 5738 5732 5727 5722 5719 5716 5714 5712 5711 5710 5707 5704 5702 5700 5698 5699 5698 5697 5697 5694 5690 5689
5708 5721 5720 5717 5710 5706 5718 5701 5730 5743 5751 5758 5758 5757 5755 5756 5756 5754 5754 5753 5752 5751 5750 5747 5744 5740 5736 5732 5727 5723 5718 5714 5713 5712 5710 5708 5706 5705 5702 5700 5698 5696 5695 5696 5697 5696 5696 5693 5688
5714 5725 5719 5714 5707 5701 5706 5698 5715 5734 5741 5749 5751 5752 5752 5752 5751 5750 5749 5748 5747 5745 5743 5740 5736 5733 5729 5726 5723 5718 5714 5711 5709 5707 5705 5703 5702 5700 5698 5697 5695 5693 5691 5692 5693 5693 5694 5693 5691
5720 5713 5705 5695 5690 5682 5700 5692 5701 5723 5737 5746 5748 5749 5750 5749 5748 5746 5745 5743 5740 5738 5736 5733 5729 5725 5722 5719 5716 5713 5709 5706 5703 5701 5700 5697 5696 5695 5693 5692 5691 5689 5688 5688 5688 5690 5691 5690 5690
5709 5691 5671 5670 5664 5672 5697 5694 5703 5734 5742 5745 5746 5746 5747 5747 5744 5741 5738 5736 5734 5731 5729 5726 5722 5719 5716 5712 5710 5707 5705 5702 5700 5698 5696 5693 5691 5690 5689 5687 5686 5684 5684 5684 5684 5685 5686 5687 5687
5699 5691 5669 5659 5659 5670 5691 5687 5711 5738 5746 5749 5749 5748 5745 5743 5741 5738 5737 5733 5730 5727 5724 5721 5717 5713 5710 5706 5704 5701 5700 5697 5695 5694 5693 5691 5689 5688 5687 5684 5682 5681 5680 5679 5680 5681 5682 5683 5683
5695 5688 5697 5675 5669 5666 5677 5694 5715 5737 5740 5742 5742 5741 5739 5740 5739 5738 5735 5731 5728 5724 5721 5717 5714 5710 5706 5703 5699 5696 5695 5693 5691 5690 5689 5687 5686 5684 5683 5681 5678 5677 5676 5675 5676 5677 5678 5678 5679
5702 5692 5676 5666 5655 5652 5667 5679 5693 5718 5727 5732 5733 5733 5735 5737 5736 5736 5733 5730 5726 5723 5719 5715 5711 5708 5704 5700 5697 5694 5691 5689 5687 5685 5684 5682 5681 5680 5678 5677 5675 5674 5673 5672 5673 5674 5674 5674 5675
5689 5686 5676 5666 5662 5650 5650 5671 5706 5713 5721 5723 5726 5729 5731 5731 5732 5732 5730 5727 5724 5720 5715 5711 5708 5704 5701 5697 5694 5691 5688 5686 5683 5681 5680 5678 5676 5675 5674 5673 5672 5670 5669 5668 5668 5669 5670 5671 5671
5684 5678 5669 5657 5654 5650 5647 5667 5714 5714 5717 5719 5721 5725 5727 5728 5729 5728 5726 5723 5719 5715 5712 5708 5705 5701 5698 5695 5691 5687 5685 5682 5679 5677 5675 5674 5672 5671 5670 5669 5668 5667 5666 5665 5665 5665 5666 5667 5668